contact:dominique.lefevre@mio.osupytheas.fr, maurice.libes@osupytheas.fr, didier.mallarino@osupytheas.fr
Project:EMSO http://www.emso-fr.org/EMSO-France
Depth: 2436.0 m
Title:EMSO Ligure Ouest : Data MII capteur AQUADOPP
Date,Latitude,Longitude,X_East,Y_North,Z_Up,Amplitude_X,Amplitude_Y,Amplitude_Z,Batterie,SoundSpeed,Heading,Pitch,Roll,Pressure,TIS,Speed,Direction
, degrees North, degrees East, m.s-1, m.s-1,m.s-1, 1, 1, 1, Volt, m.s-1, degree, degree, degree, dbar, degree_C, m.s-1, degree
2022-06-10T00:04:03,42.805,6.029,0.044,-0.008,0.018,104.0,104.0,101.0,13.3,1505.2,322.6,-0.8,1.9,2470.869,13.28,0.044,100.3
2022-06-10T00:07:03,42.805,6.029,0.041,-0.009,-0.001,103.0,103.0,101.0,13.4,1505.2,323.4,-0.8,1.8,2470.873,13.28,0.041,102.4
2022-06-10T00:10:03,42.805,6.029,0.036,0.007,-0.009,103.0,103.0,100.0,13.3,1505.2,328.7,-0.8,1.8,2470.851,13.28,0.036,79.0
2022-06-10T00:13:03,42.805,6.029,0.03,-0.018,0.0,105.0,105.0,100.0,13.3,1505.2,325.5,-0.8,1.8,2470.843,13.28,0.034,121.0
2022-06-10T00:16:03,42.805,6.029,0.035,-0.012,0.011,104.0,103.0,100.0,13.3,1505.2,332.9,-0.8,1.8,2470.843,13.28,0.037,108.9
2022-06-10T00:19:03,42.805,6.029,0.037,-0.006,0.0,103.0,103.0,101.0,13.4,1505.2,322.6,-0.7,1.8,2470.805,13.28,0.037,99.2
2022-06-10T00:22:03,42.805,6.029,0.048,0.0,0.019,103.0,103.0,101.0,13.4,1505.2,322.8,-0.7,1.8,2470.815,13.28,0.048,90.0
2022-06-10T00:25:03,42.805,6.029,0.061,-0.01,0.021,101.0,104.0,101.0,13.4,1505.2,327.5,-0.8,1.8,2470.865,13.28,0.061,99.3
2022-06-10T00:28:03,42.805,6.029,0.035,-0.004,-0.005,103.0,104.0,102.0,13.4,1505.2,328.4,-0.8,1.8,2470.845,13.28,0.035,96.5
2022-06-10T00:31:03,42.805,6.029,0.039,-0.017,-0.007,104.0,104.0,100.0,13.4,1505.2,329.3,-0.8,1.8,2470.831,13.28,0.042,113.5
2022-06-10T00:34:03,42.805,6.029,0.038,0.01,-0.011,104.0,104.0,100.0,13.3,1505.2,324.4,-0.8,1.8,2470.867,13.28,0.039,75.3
2022-06-10T00:37:03,42.805,6.029,0.048,-0.009,-0.003,103.0,103.0,101.0,13.4,1505.2,328.2,-0.8,1.8,2470.858,13.28,0.048,100.6
2022-06-10T00:40:03,42.805,6.029,0.047,-0.009,0.03,104.0,103.0,100.0,13.4,1505.2,320.7,-0.8,1.8,2470.841,13.28,0.047,100.8
2022-06-10T00:43:03,42.805,6.029,0.065,-0.035,0.002,104.0,104.0,101.0,13.4,1505.2,329.4,-0.7,1.8,2470.867,13.28,0.073,118.3
2022-06-10T00:46:03,42.805,6.029,0.039,0.002,0.0,104.0,104.0,100.0,13.4,1505.2,327.2,-0.8,1.8,2470.805,13.28,0.039,87.1
2022-06-10T00:49:03,42.805,6.029,0.038,-0.021,-0.005,104.0,104.0,101.0,13.4,1505.2,329.7,-0.8,1.8,2470.859,13.28,0.043,118.9
2022-06-10T00:52:03,42.805,6.029,0.055,-0.032,-0.007,102.0,104.0,101.0,13.4,1505.2,321.8,-0.8,1.8,2470.86,13.28,0.063,120.2
2022-06-10T00:55:03,42.805,6.029,0.05,-0.018,0.01,103.0,104.0,100.0,13.4,1505.2,324.1,-0.8,1.8,2470.846,13.28,0.053,109.8
2022-06-10T00:58:03,42.805,6.029,0.037,-0.019,-0.002,103.0,103.0,101.0,13.3,1505.2,327.7,-0.7,1.8,2470.863,13.28,0.041,117.2
2022-06-10T01:04:03,42.805,6.029,0.031,0.003,0.008,103.0,105.0,102.0,13.4,1505.2,327.8,-0.7,1.8,2470.859,13.28,0.031,84.5
2022-06-10T01:07:03,42.805,6.029,0.048,-0.007,-0.014,105.0,104.0,100.0,13.4,1505.2,323.2,-0.7,1.8,2470.896,13.28,0.048,98.3
2022-06-10T01:10:03,42.805,6.029,0.028,-0.02,-0.016,103.0,103.0,101.0,13.3,1505.2,328.5,-0.8,1.8,2470.885,13.28,0.034,125.5
2022-06-10T01:13:03,42.805,6.029,0.049,-0.014,-0.017,104.0,104.0,101.0,13.4,1505.2,322.0,-0.7,1.8,2470.897,13.28,0.05,105.9
2022-06-10T01:16:03,42.805,6.029,0.048,-0.031,0.011,103.0,103.0,101.0,13.3,1505.2,331.5,-0.8,1.8,2470.872,13.28,0.057,122.9
2022-06-10T01:19:03,42.805,6.029,0.03,-0.006,-0.011,104.0,104.0,101.0,13.4,1505.2,330.3,-0.8,1.8,2470.879,13.28,0.03,101.3
2022-06-10T01:22:03,42.805,6.029,0.029,-0.001,0.013,101.0,104.0,101.0,13.3,1505.2,322.7,-0.8,1.8,2470.922,13.28,0.029,92.0
2022-06-10T01:25:03,42.805,6.029,0.025,-0.009,0.003,104.0,105.0,101.0,13.3,1505.2,325.7,-0.7,1.8,2470.87,13.28,0.026,109.8
2022-06-10T01:28:03,42.805,6.029,0.046,-0.001,-0.005,103.0,103.0,101.0,13.4,1505.2,331.4,-0.8,1.8,2470.897,13.28,0.046,91.2
2022-06-10T01:31:03,42.805,6.029,0.054,-0.013,0.01,103.0,103.0,101.0,13.3,1505.2,325.7,-0.8,1.8,2470.867,13.28,0.055,103.5
2022-06-10T01:34:03,42.805,6.029,0.032,-0.003,0.008,102.0,104.0,101.0,13.4,1505.2,326.5,-0.7,1.8,2470.816,13.28,0.032,95.4
2022-06-10T01:37:03,42.805,6.029,0.035,-0.012,0.008,105.0,104.0,101.0,13.3,1505.2,326.8,-0.8,1.8,2470.828,13.28,0.037,108.9
2022-06-10T01:40:03,42.805,6.029,0.04,-0.026,0.005,104.0,104.0,100.0,13.4,1505.2,329.0,-0.8,1.8,2470.897,13.28,0.047,123.0
2022-06-10T01:43:03,42.805,6.029,0.043,-0.012,0.022,103.0,105.0,100.0,13.4,1505.2,327.1,-0.8,1.8,2470.885,13.28,0.044,105.6
2022-06-10T01:46:03,42.805,6.029,0.044,0.003,-0.003,103.0,104.0,101.0,13.4,1505.2,327.8,-0.8,1.8,2470.865,13.28,0.044,86.1
2022-06-10T01:49:03,42.805,6.029,0.037,-0.011,0.014,103.0,103.0,101.0,13.3,1505.2,324.1,-0.8,1.8,2470.865,13.28,0.038,106.6
2022-06-10T01:52:03,42.805,6.029,0.046,0.003,0.007,103.0,105.0,101.0,13.3,1505.2,322.5,-0.8,1.8,2470.87,13.28,0.046,86.3
2022-06-10T01:55:03,42.805,6.029,0.017,-0.004,-0.015,104.0,105.0,102.0,13.3,1505.2,324.4,-0.8,1.8,2470.844,13.28,0.017,103.2
2022-06-10T01:58:03,42.805,6.029,0.046,-0.01,0.001,105.0,105.0,101.0,13.4,1505.2,330.6,-0.8,1.8,2470.859,13.28,0.047,102.3
2022-06-10T02:04:03,42.805,6.029,0.032,-0.026,0.011,103.0,103.0,102.0,13.3,1505.2,327.8,-0.7,1.8,2470.935,13.28,0.041,129.1
2022-06-10T02:07:03,42.805,6.029,0.024,-0.015,-0.007,103.0,105.0,101.0,13.4,1505.2,326.8,-0.8,1.8,2470.891,13.28,0.028,122.0
2022-06-10T02:10:03,42.805,6.029,0.027,-0.002,0.007,105.0,104.0,101.0,13.4,1505.2,325.7,-0.7,1.8,2470.897,13.28,0.027,94.2
2022-06-10T02:13:03,42.805,6.029,0.047,-0.011,0.023,104.0,102.0,101.0,13.4,1505.2,324.7,-0.7,1.8,2470.888,13.28,0.048,103.2
2022-06-10T02:16:03,42.805,6.029,0.044,-0.003,0.01,105.0,103.0,101.0,13.4,1505.2,326.0,-0.8,1.8,2470.88,13.28,0.044,93.9
2022-06-10T02:19:03,42.805,6.029,0.038,-0.011,0.0,104.0,103.0,101.0,13.3,1505.2,325.0,-0.8,1.8,2470.895,13.28,0.039,106.1
2022-06-10T02:22:03,42.805,6.029,0.041,-0.014,0.025,103.0,104.0,103.0,13.4,1505.2,333.2,-0.8,1.8,2470.902,13.28,0.043,108.9
2022-06-10T02:25:03,42.805,6.029,0.05,-0.007,-0.009,103.0,104.0,101.0,13.3,1505.2,320.6,-0.7,1.8,2470.874,13.28,0.05,98.0
2022-06-10T02:28:03,42.805,6.029,0.029,-0.01,-0.002,105.0,103.0,101.0,13.3,1505.2,323.9,-0.8,1.8,2470.887,13.28,0.03,109.0
2022-06-10T02:31:03,42.805,6.029,0.034,-0.026,0.015,104.0,103.0,101.0,13.4,1505.2,332.9,-0.8,1.8,2470.874,13.28,0.042,127.4
2022-06-10T02:34:03,42.805,6.029,0.056,-0.016,0.006,105.0,103.0,102.0,13.4,1505.2,320.9,-0.7,1.8,2470.853,13.28,0.058,105.9
2022-06-10T02:37:03,42.805,6.029,0.036,0.008,0.034,104.0,104.0,101.0,13.4,1505.2,322.4,-0.7,1.8,2470.905,13.28,0.036,77.5
2022-06-10T02:40:03,42.805,6.029,0.041,-0.033,0.011,102.0,105.0,102.0,13.4,1505.2,332.5,-0.8,1.8,2470.899,13.28,0.052,128.8
2022-06-10T02:43:03,42.805,6.029,0.065,-0.026,-0.027,105.0,103.0,101.0,13.3,1505.2,324.3,-0.8,1.8,2470.858,13.28,0.07,111.8
2022-06-10T02:46:03,42.805,6.029,0.053,0.002,-0.019,105.0,104.0,100.0,13.4,1505.2,320.6,-0.8,1.8,2470.865,13.28,0.053,87.8
2022-06-10T02:49:03,42.805,6.029,0.031,-0.011,-0.017,104.0,105.0,100.0,13.4,1505.2,328.8,-0.8,1.8,2470.904,13.28,0.032,109.5
2022-06-10T02:52:03,42.805,6.029,0.047,0.01,0.007,104.0,106.0,101.0,13.3,1505.2,329.1,-0.8,1.8,2470.885,13.28,0.048,78.0
2022-06-10T02:55:03,42.805,6.029,0.036,-0.011,0.002,105.0,103.0,102.0,13.4,1505.2,325.0,-0.8,1.8,2470.843,13.28,0.037,107.0
2022-06-10T02:58:03,42.805,6.029,0.047,-0.007,0.003,104.0,104.0,101.0,13.3,1505.2,329.2,-0.8,1.8,2470.86,13.28,0.047,98.5
2022-06-10T03:04:03,42.805,6.029,0.052,-0.015,0.034,104.0,104.0,102.0,13.4,1505.2,328.6,-0.8,1.8,2470.892,13.28,0.054,106.1
2022-06-10T03:07:03,42.805,6.029,0.021,-0.02,-0.021,105.0,104.0,101.0,13.4,1505.2,327.8,-0.8,1.8,2470.941,13.28,0.028,133.6
2022-06-10T03:10:03,42.805,6.029,0.053,-0.002,-0.034,103.0,105.0,102.0,13.4,1505.2,326.7,-0.8,1.8,2470.933,13.28,0.053,92.2
2022-06-10T03:13:03,42.805,6.029,0.044,-0.015,0.005,104.0,104.0,101.0,13.4,1505.2,325.0,-0.8,1.8,2470.904,13.28,0.046,108.8
2022-06-10T03:16:03,42.805,6.029,0.034,0.001,-0.009,105.0,103.0,102.0,13.4,1505.2,329.1,-0.7,1.8,2470.877,13.28,0.034,88.3
2022-06-10T03:19:03,42.805,6.029,0.046,0.002,0.003,104.0,104.0,101.0,13.4,1505.2,325.2,-0.7,1.8,2470.883,13.28,0.046,87.5
2022-06-10T03:22:03,42.805,6.029,0.033,-0.017,0.017,104.0,104.0,102.0,13.4,1505.2,329.1,-0.8,1.8,2470.884,13.28,0.037,117.3
2022-06-10T03:25:03,42.805,6.029,0.034,-0.017,-0.01,104.0,104.0,101.0,13.4,1505.2,321.6,-0.8,1.8,2470.87,13.28,0.038,116.6
2022-06-10T03:28:03,42.805,6.029,0.035,-0.016,-0.007,105.0,104.0,101.0,13.4,1505.2,329.2,-0.7,1.8,2470.891,13.28,0.038,114.6
2022-06-10T03:31:03,42.805,6.029,0.051,0.0,-0.034,103.0,105.0,101.0,13.4,1505.2,324.4,-0.8,1.8,2470.879,13.28,0.051,90.0
2022-06-10T03:34:03,42.805,6.029,0.032,-0.026,0.0,105.0,103.0,101.0,13.4,1505.2,331.1,-0.8,1.8,2470.887,13.28,0.041,129.1
2022-06-10T03:37:03,42.805,6.029,0.042,-0.01,0.015,104.0,104.0,103.0,13.4,1505.2,321.5,-0.7,1.8,2470.887,13.28,0.043,103.4
2022-06-10T03:40:03,42.805,6.029,0.048,-0.014,-0.017,104.0,104.0,101.0,13.4,1505.2,324.4,-0.7,1.8,2470.865,13.28,0.05,106.3
2022-06-10T03:43:03,42.805,6.029,0.031,-0.041,0.001,104.0,103.0,102.0,13.3,1505.2,326.8,-0.8,1.8,2470.901,13.28,0.051,142.9
2022-06-10T03:46:03,42.805,6.029,0.026,0.004,0.006,105.0,103.0,103.0,13.4,1505.2,328.7,-0.8,1.8,2470.859,13.28,0.026,81.3
2022-06-10T03:49:03,42.805,6.029,0.029,-0.013,-0.012,104.0,103.0,102.0,13.3,1505.2,333.6,-0.8,1.8,2470.87,13.28,0.031,114.1
2022-06-10T03:52:03,42.805,6.029,0.032,-0.008,0.025,105.0,102.0,101.0,13.3,1505.2,329.0,-0.8,1.8,2470.875,13.28,0.032,104.0
2022-06-10T03:55:03,42.805,6.029,0.053,0.0,-0.022,105.0,102.0,102.0,13.4,1505.2,326.1,-0.8,1.8,2470.86,13.28,0.053,90.0
2022-06-10T03:58:03,42.805,6.029,0.03,0.0,0.036,104.0,103.0,102.0,13.3,1505.2,331.9,-0.8,1.8,2470.843,13.28,0.03,90.0
2022-06-10T04:04:03,42.805,6.029,0.033,0.003,0.036,105.0,102.0,101.0,13.4,1505.2,324.6,-0.8,1.8,2470.905,13.28,0.033,84.8
2022-06-10T04:07:03,42.805,6.029,0.061,-0.013,-0.012,104.0,103.0,100.0,13.4,1505.2,326.9,-0.8,1.8,2470.948,13.28,0.062,102.0
2022-06-10T04:10:03,42.805,6.029,0.016,-0.008,-0.012,105.0,103.0,101.0,13.3,1505.2,325.4,-0.8,1.8,2470.922,13.28,0.017,116.6
2022-06-10T04:13:03,42.805,6.029,0.022,-0.01,0.014,103.0,103.0,102.0,13.3,1505.2,324.4,-0.7,1.8,2470.898,13.28,0.024,114.4
2022-06-10T04:16:03,42.805,6.029,0.055,0.008,-0.005,104.0,104.0,101.0,13.4,1505.2,324.0,-0.8,1.8,2470.888,13.28,0.055,81.7
2022-06-10T04:19:03,42.805,6.029,0.025,0.009,0.044,105.0,103.0,102.0,13.3,1505.2,330.6,-0.8,1.8,2470.871,13.28,0.026,70.2
2022-06-10T04:22:03,42.805,6.029,0.032,-0.002,0.003,103.0,104.0,101.0,13.3,1505.2,322.9,-0.7,1.8,2470.904,13.28,0.032,93.6
2022-06-10T04:25:03,42.805,6.029,0.026,-0.011,-0.041,104.0,104.0,101.0,13.4,1505.2,329.7,-0.8,1.8,2470.858,13.28,0.028,112.9
2022-06-10T04:28:03,42.805,6.029,0.051,-0.006,0.033,104.0,105.0,101.0,13.3,1505.2,323.8,-0.8,1.9,2470.883,13.28,0.051,96.7
2022-06-10T04:31:03,42.805,6.029,0.055,-0.011,-0.011,103.0,105.0,102.0,13.3,1505.2,324.0,-0.7,1.8,2470.874,13.28,0.056,101.3
2022-06-10T04:34:03,42.805,6.029,0.044,0.016,0.027,103.0,103.0,101.0,13.4,1505.2,323.4,-0.8,1.8,2470.856,13.28,0.046,70.0
2022-06-10T04:37:03,42.805,6.029,0.048,-0.005,0.001,105.0,103.0,101.0,13.3,1505.2,326.4,-0.8,1.8,2470.852,13.28,0.048,95.9
2022-06-10T04:40:03,42.805,6.029,0.053,0.02,0.026,104.0,104.0,102.0,13.4,1505.2,327.3,-0.8,1.8,2470.892,13.28,0.056,69.3
2022-06-10T04:43:03,42.805,6.029,0.037,-0.016,0.002,104.0,105.0,101.0,13.4,1505.2,323.0,-0.8,1.8,2470.872,13.28,0.04,113.4
2022-06-10T04:46:03,42.805,6.029,0.027,-0.002,-0.004,103.0,105.0,101.0,13.4,1505.2,321.8,-0.7,1.8,2470.885,13.28,0.027,94.2
2022-06-10T04:49:03,42.805,6.029,0.03,0.0,0.004,104.0,105.0,101.0,13.4,1505.2,326.8,-0.7,1.8,2470.836,13.28,0.03,90.0
2022-06-10T04:52:03,42.805,6.029,0.041,-0.006,0.038,104.0,105.0,101.0,13.4,1505.2,322.2,-0.7,1.8,2470.858,13.28,0.041,98.3
2022-06-10T04:55:03,42.805,6.029,0.036,-0.015,-0.006,104.0,105.0,101.0,13.4,1505.2,323.1,-0.7,1.8,2470.854,13.28,0.039,112.6
2022-06-10T04:58:03,42.805,6.029,0.036,-0.01,-0.015,104.0,105.0,101.0,13.3,1505.2,325.8,-0.8,1.8,2470.851,13.28,0.037,105.5
2022-06-10T05:04:03,42.805,6.029,0.038,-0.027,0.009,103.0,106.0,101.0,13.4,1505.2,328.0,-0.8,1.8,2470.863,13.28,0.046,125.4
2022-06-10T05:07:03,42.805,6.029,0.044,-0.004,0.005,105.0,103.0,100.0,13.3,1505.2,327.1,-0.8,1.8,2470.898,13.28,0.044,95.2
2022-06-10T05:10:03,42.805,6.029,0.025,-0.024,0.004,105.0,104.0,101.0,13.4,1505.2,323.5,-0.8,1.8,2470.858,13.28,0.034,133.8
2022-06-10T05:13:03,42.805,6.029,0.026,-0.005,0.008,103.0,106.0,101.0,13.3,1505.2,321.5,-0.8,1.8,2470.869,13.28,0.026,100.9
2022-06-10T05:16:03,42.805,6.029,0.045,-0.02,0.014,105.0,104.0,102.0,13.4,1505.2,323.9,-0.7,1.8,2470.861,13.28,0.049,114.0
2022-06-10T05:19:03,42.805,6.029,0.049,-0.011,0.02,104.0,107.0,101.0,13.3,1505.2,328.3,-0.8,1.8,2470.864,13.28,0.05,102.7
2022-06-10T05:22:03,42.805,6.029,0.036,-0.019,0.01,104.0,103.0,101.0,13.4,1505.2,326.5,-0.8,1.8,2470.872,13.28,0.04,117.8
2022-06-10T05:25:03,42.805,6.029,0.043,-0.016,0.007,103.0,103.0,101.0,13.4,1505.2,325.8,-0.8,1.8,2470.859,13.28,0.045,110.4
2022-06-10T05:28:03,42.805,6.029,0.036,-0.002,0.004,104.0,104.0,101.0,13.3,1505.2,324.8,-0.7,1.8,2470.822,13.28,0.036,93.2
2022-06-10T05:31:03,42.805,6.029,0.049,-0.003,0.014,106.0,104.0,100.0,13.4,1505.2,331.8,-0.7,1.8,2470.879,13.28,0.049,93.5
2022-06-10T05:34:03,42.805,6.029,0.042,-0.002,0.019,103.0,105.0,102.0,13.3,1505.2,326.5,-0.8,1.8,2470.855,13.28,0.042,92.7
2022-06-10T05:37:03,42.805,6.029,0.036,0.007,0.035,105.0,104.0,101.0,13.4,1505.2,324.5,-0.7,1.8,2470.808,13.28,0.036,79.0
2022-06-10T05:40:03,42.805,6.029,0.062,-0.007,-0.013,105.0,103.0,102.0,13.4,1505.2,322.6,-0.8,1.8,2470.831,13.28,0.062,96.4
2022-06-10T05:43:03,42.805,6.029,0.054,-0.013,-0.002,103.0,105.0,101.0,13.4,1505.2,327.5,-0.7,1.8,2470.822,13.28,0.055,103.5
2022-06-10T05:46:03,42.805,6.029,0.039,-0.015,-0.008,104.0,104.0,101.0,13.3,1505.2,329.0,-0.7,1.8,2470.809,13.28,0.041,111.0
2022-06-10T05:49:03,42.805,6.029,0.04,0.001,0.008,104.0,103.0,103.0,13.3,1505.2,321.8,-0.8,1.8,2470.832,13.28,0.04,88.6
2022-06-10T05:52:03,42.805,6.029,0.044,0.0,0.001,104.0,104.0,101.0,13.3,1505.2,322.9,-0.8,1.9,2470.84,13.28,0.044,90.0
2022-06-10T05:55:03,42.805,6.029,0.063,-0.01,-0.02,104.0,104.0,102.0,13.4,1505.2,327.2,-0.8,1.8,2470.829,13.28,0.063,99.0
2022-06-10T05:58:03,42.805,6.029,0.034,0.013,-0.045,104.0,104.0,101.0,13.4,1505.2,332.3,-0.8,1.8,2470.829,13.28,0.036,69.1
2022-06-10T06:04:03,42.805,6.029,0.046,0.0,0.017,104.0,105.0,101.0,13.4,1505.2,327.5,-0.7,1.8,2470.862,13.28,0.046,90.0
2022-06-10T06:07:03,42.805,6.029,0.047,-0.006,-0.024,105.0,104.0,101.0,13.4,1505.2,324.7,-0.8,1.8,2470.863,13.28,0.047,97.3
2022-06-10T06:10:03,42.805,6.029,0.061,-0.02,0.011,104.0,106.0,101.0,13.4,1505.2,327.0,-0.8,1.8,2470.845,13.28,0.064,108.1
2022-06-10T06:13:03,42.805,6.029,0.048,-0.001,-0.014,104.0,105.0,100.0,13.4,1505.2,324.6,-0.8,1.8,2470.834,13.28,0.048,91.2
2022-06-10T06:16:03,42.805,6.029,0.023,-0.012,0.006,104.0,104.0,101.0,13.4,1505.2,328.7,-0.8,1.8,2470.836,13.28,0.025,117.6
2022-06-10T06:19:03,42.805,6.029,0.045,-0.027,0.0,104.0,104.0,101.0,13.4,1505.2,328.3,-0.7,1.8,2470.855,13.28,0.052,121.0
2022-06-10T06:22:03,42.805,6.029,0.026,0.001,0.008,104.0,103.0,102.0,13.4,1505.2,329.4,-0.8,1.9,2470.8,13.28,0.026,87.8
2022-06-10T06:25:03,42.805,6.029,0.045,0.029,-0.003,104.0,105.0,101.0,13.4,1505.2,324.6,-0.8,1.8,2470.886,13.28,0.053,57.2
2022-06-10T06:28:03,42.805,6.029,0.05,-0.006,0.002,105.0,105.0,101.0,13.4,1505.2,326.5,-0.7,1.8,2470.788,13.28,0.05,96.8
2022-06-10T06:31:03,42.805,6.029,0.038,-0.027,0.009,104.0,104.0,101.0,13.4,1505.2,328.5,-0.7,1.8,2470.795,13.28,0.046,125.4
2022-06-10T06:34:03,42.805,6.029,0.068,-0.015,0.003,104.0,103.0,102.0,13.4,1505.2,332.9,-0.8,1.8,2470.846,13.28,0.069,102.4
2022-06-10T06:37:03,42.805,6.029,0.036,-0.002,0.015,104.0,107.0,101.0,13.4,1505.2,321.8,-0.8,1.8,2470.797,13.28,0.036,93.2
2022-06-10T06:40:03,42.805,6.029,0.047,-0.019,-0.002,105.0,105.0,101.0,13.4,1505.2,329.2,-0.7,1.8,2470.798,13.28,0.05,112.0
2022-06-10T06:43:03,42.805,6.029,0.071,-0.009,0.0,103.0,104.0,101.0,13.4,1505.2,330.5,-0.7,1.8,2470.807,13.28,0.071,97.2
2022-06-10T06:46:03,42.805,6.029,0.05,-0.002,-0.016,103.0,105.0,101.0,13.4,1505.2,321.8,-0.8,1.8,2470.813,13.28,0.05,92.3
2022-06-10T06:49:03,42.805,6.029,0.043,0.009,0.013,104.0,105.0,100.0,13.3,1505.2,326.7,-0.8,1.9,2470.827,13.28,0.043,78.2
2022-06-10T06:52:03,42.805,6.029,0.055,0.02,-0.003,104.0,104.0,101.0,13.3,1505.2,323.3,-0.8,1.8,2470.816,13.28,0.058,70.0
2022-06-10T06:55:03,42.805,6.029,0.027,-0.011,0.009,104.0,104.0,102.0,13.3,1505.2,331.6,-0.8,1.8,2470.817,13.28,0.029,112.2
2022-06-10T06:58:03,42.805,6.029,0.055,0.0,-0.005,105.0,105.0,101.0,13.3,1505.2,328.5,-0.7,1.8,2470.782,13.28,0.055,90.0
2022-06-10T07:04:03,42.805,6.029,0.061,-0.015,-0.007,101.0,104.0,102.0,13.3,1505.2,324.0,-0.7,1.8,2470.874,13.28,0.062,103.8
2022-06-10T07:07:03,42.805,6.029,0.067,-0.005,0.0,105.0,104.0,100.0,13.3,1505.2,326.8,-0.8,1.8,2470.854,13.28,0.067,94.3
2022-06-10T07:10:03,42.805,6.029,0.05,-0.011,-0.019,105.0,105.0,101.0,13.3,1505.2,327.0,-0.7,1.8,2470.811,13.28,0.051,102.4
2022-06-10T07:13:03,42.805,6.029,0.065,-0.008,0.007,106.0,103.0,101.0,13.4,1505.2,326.1,-0.8,1.8,2470.799,13.28,0.065,97.0
2022-06-10T07:16:03,42.805,6.029,0.052,-0.007,0.009,104.0,106.0,100.0,13.3,1505.2,328.4,-0.8,1.8,2470.748,13.28,0.052,97.7
2022-06-10T07:19:03,42.805,6.029,0.051,0.001,0.025,104.0,103.0,103.0,13.3,1505.2,329.6,-0.7,1.8,2470.781,13.28,0.051,88.9
2022-06-10T07:22:03,42.805,6.029,0.035,-0.013,-0.013,105.0,103.0,102.0,13.4,1505.2,328.3,-0.8,1.8,2470.778,13.28,0.037,110.4
2022-06-10T07:25:03,42.805,6.029,0.055,-0.023,-0.005,105.0,106.0,101.0,13.4,1505.2,325.5,-0.8,1.8,2470.838,13.28,0.059,112.7
2022-06-10T07:28:03,42.805,6.029,0.062,-0.015,-0.009,104.0,105.0,102.0,13.3,1505.2,324.4,-0.8,1.8,2470.784,13.28,0.063,103.6
2022-06-10T07:31:03,42.805,6.029,0.045,-0.021,0.01,103.0,104.0,102.0,13.4,1505.2,328.4,-0.8,1.8,2470.774,13.28,0.049,115.0
2022-06-10T07:34:03,42.805,6.029,0.045,-0.02,-0.015,104.0,106.0,101.0,13.4,1505.2,322.0,-0.8,1.8,2470.803,13.28,0.049,114.0
2022-06-10T07:37:03,42.805,6.029,0.037,-0.012,0.006,104.0,104.0,101.0,13.4,1505.2,330.7,-0.7,1.8,2470.806,13.28,0.038,108.0
2022-06-10T07:40:03,42.805,6.029,0.047,-0.014,0.004,104.0,105.0,102.0,13.3,1505.2,328.6,-0.7,1.8,2470.8,13.28,0.049,106.6
2022-06-10T07:43:03,42.805,6.029,0.049,-0.018,-0.013,105.0,105.0,101.0,13.4,1505.2,321.4,-0.8,1.8,2470.755,13.28,0.052,110.2
2022-06-10T07:46:03,42.805,6.029,0.034,-0.007,-0.012,103.0,104.0,101.0,13.4,1505.2,329.8,-0.8,1.8,2470.79,13.28,0.034,101.6
2022-06-10T07:49:03,42.805,6.029,0.033,-0.011,-0.021,105.0,103.0,102.0,13.4,1505.2,325.4,-0.7,1.8,2470.746,13.28,0.034,108.4
2022-06-10T07:52:03,42.805,6.029,0.044,-0.013,0.039,105.0,104.0,101.0,13.4,1505.2,322.3,-0.8,1.8,2470.718,13.28,0.045,106.5
2022-06-10T07:55:03,42.805,6.029,0.063,-0.02,-0.012,104.0,105.0,101.0,13.3,1505.2,326.0,-0.8,1.8,2470.77,13.28,0.066,107.6
2022-06-10T07:58:03,42.805,6.029,0.049,-0.006,-0.032,104.0,103.0,101.0,13.3,1505.2,325.7,-0.8,1.8,2470.749,13.28,0.049,97.0
2022-06-10T08:01:03,42.805,6.029,0.062,-0.042,0.028,103.0,104.0,100.0,13.4,1505.2,330.3,-0.8,1.8,2470.738,13.28,0.074,124.1
2022-06-10T08:04:03,42.805,6.029,0.027,-0.018,0.007,106.0,104.0,102.0,13.4,1505.2,329.6,-0.8,1.8,2470.726,13.28,0.032,123.7
2022-06-10T08:07:03,42.805,6.029,0.048,0.016,0.031,104.0,104.0,101.0,13.3,1505.2,320.6,-0.7,1.8,2470.771,13.28,0.05,71.6
2022-06-10T08:10:03,42.805,6.029,0.05,-0.007,0.012,105.0,103.0,102.0,13.4,1505.2,321.4,-0.8,1.8,2470.714,13.28,0.05,98.0
2022-06-10T08:13:03,42.805,6.029,0.051,0.008,0.013,104.0,103.0,102.0,13.4,1505.2,325.8,-0.7,1.8,2470.747,13.28,0.051,81.1
2022-06-10T08:16:03,42.805,6.029,0.042,-0.018,0.007,104.0,104.0,102.0,13.4,1505.2,326.0,-0.8,1.8,2470.771,13.28,0.045,113.2
2022-06-10T08:19:03,42.805,6.029,0.056,0.004,-0.002,104.0,105.0,101.0,13.3,1505.2,328.3,-0.8,1.8,2470.736,13.28,0.056,85.9
2022-06-10T08:22:03,42.805,6.029,0.034,-0.022,0.006,104.0,105.0,101.0,13.4,1505.2,322.5,-0.8,1.8,2470.742,13.28,0.04,122.9
2022-06-10T08:25:03,42.805,6.029,0.043,-0.003,0.013,105.0,104.0,102.0,13.4,1505.2,322.6,-0.7,1.8,2470.746,13.28,0.043,94.0
2022-06-10T08:28:03,42.805,6.029,0.052,-0.015,-0.019,105.0,105.0,101.0,13.4,1505.2,329.2,-0.7,1.8,2470.748,13.28,0.054,106.1
2022-06-10T08:31:03,42.805,6.029,0.042,-0.01,-0.001,104.0,103.0,101.0,13.3,1505.2,322.8,-0.8,1.8,2470.76,13.28,0.043,103.4
2022-06-10T08:34:03,42.805,6.029,0.04,0.005,0.012,104.0,105.0,101.0,13.4,1505.2,324.9,-0.8,1.8,2470.738,13.28,0.04,82.9
2022-06-10T08:37:03,42.805,6.029,0.029,-0.01,-0.005,103.0,104.0,101.0,13.3,1505.2,322.1,-0.7,1.8,2470.708,13.28,0.03,109.0
2022-06-10T08:40:03,42.805,6.029,0.055,-0.013,0.0,102.0,104.0,102.0,13.4,1505.2,323.7,-0.7,1.8,2470.719,13.28,0.056,103.3
2022-06-10T08:43:03,42.805,6.029,0.053,-0.014,-0.013,105.0,103.0,101.0,13.4,1505.2,322.7,-0.8,1.8,2470.723,13.28,0.054,104.8
2022-06-10T08:46:03,42.805,6.029,0.025,-0.036,0.002,104.0,102.0,101.0,13.4,1505.2,327.8,-0.8,1.8,2470.716,13.28,0.043,145.2
2022-06-10T08:49:03,42.805,6.029,0.037,-0.003,0.001,104.0,105.0,101.0,13.4,1505.2,320.8,-0.8,1.8,2470.761,13.28,0.037,94.6
2022-06-10T08:52:03,42.805,6.029,0.028,-0.023,-0.013,104.0,104.0,102.0,13.4,1505.2,328.7,-0.7,1.8,2470.732,13.28,0.036,129.4
2022-06-10T08:55:03,42.805,6.029,0.029,-0.008,-0.029,103.0,103.0,102.0,13.4,1505.2,323.4,-0.8,1.8,2470.761,13.28,0.03,105.4
2022-06-10T08:58:03,42.805,6.029,0.047,-0.018,0.005,103.0,104.0,102.0,13.4,1505.2,322.4,-0.8,1.8,2470.704,13.28,0.05,111.0
2022-06-10T09:04:03,42.805,6.029,0.058,-0.027,-0.021,104.0,103.0,101.0,13.4,1505.2,324.4,-0.8,1.9,2470.736,13.28,0.063,115.0
2022-06-10T09:07:03,42.805,6.029,0.027,-0.025,0.022,105.0,103.0,101.0,13.4,1505.2,327.8,-0.8,1.8,2470.749,13.28,0.036,132.8
2022-06-10T09:10:03,42.805,6.029,0.016,-0.019,-0.003,105.0,104.0,101.0,13.3,1505.2,328.2,-0.8,1.8,2470.78,13.28,0.024,139.9
2022-06-10T09:13:03,42.805,6.029,0.044,0.001,0.007,105.0,103.0,102.0,13.4,1505.2,322.9,-0.7,1.8,2470.737,13.28,0.044,88.7
2022-06-10T09:16:03,42.805,6.029,0.021,-0.016,-0.019,104.0,104.0,103.0,13.4,1505.2,324.6,-0.8,1.8,2470.725,13.28,0.026,127.3
2022-06-10T09:19:03,42.805,6.029,0.047,-0.012,-0.01,105.0,104.0,101.0,13.4,1505.2,326.0,-0.8,1.8,2470.766,13.28,0.048,104.3
2022-06-10T09:22:03,42.805,6.029,0.039,-0.031,-0.01,104.0,104.0,102.0,13.3,1505.2,332.9,-0.8,1.8,2470.737,13.28,0.049,128.5
2022-06-10T09:25:03,42.805,6.029,0.02,-0.024,-0.026,105.0,103.0,101.0,13.3,1505.2,327.8,-0.7,1.8,2470.687,13.28,0.031,140.2
2022-06-10T09:28:03,42.805,6.029,0.057,-0.027,-0.017,104.0,104.0,101.0,13.4,1505.2,332.1,-0.7,1.8,2470.788,13.28,0.063,115.3
2022-06-10T09:31:03,42.805,6.029,0.047,-0.022,-0.021,104.0,104.0,101.0,13.4,1505.2,322.0,-0.7,1.8,2470.719,13.28,0.051,115.1
2022-06-10T09:34:03,42.805,6.029,0.064,-0.01,0.01,104.0,103.0,101.0,13.3,1505.2,324.8,-0.7,1.8,2470.722,13.28,0.064,98.9
2022-06-10T09:37:03,42.805,6.029,0.051,-0.02,0.033,103.0,103.0,101.0,13.4,1505.2,330.9,-0.7,1.8,2470.703,13.28,0.054,111.4
2022-06-10T09:40:03,42.805,6.029,0.036,-0.004,0.033,102.0,104.0,103.0,13.4,1505.2,331.1,-0.7,1.8,2470.699,13.28,0.036,96.3
2022-06-10T09:43:03,42.805,6.029,0.048,-0.031,0.002,104.0,103.0,101.0,13.4,1505.2,326.1,-0.8,1.8,2470.695,13.28,0.057,122.9
2022-06-10T09:46:03,42.805,6.029,0.026,-0.027,-0.008,104.0,104.0,102.0,13.3,1505.2,328.8,-0.7,1.8,2470.758,13.28,0.037,136.1
2022-06-10T09:49:03,42.805,6.029,0.045,-0.028,-0.004,104.0,105.0,101.0,13.3,1505.2,327.1,-0.8,1.8,2470.701,13.28,0.053,121.9
2022-06-10T09:52:03,42.805,6.029,0.044,-0.027,0.017,103.0,105.0,103.0,13.3,1505.2,331.3,-0.8,1.8,2470.744,13.28,0.051,121.5
2022-06-10T09:55:03,42.805,6.029,0.037,-0.03,-0.02,105.0,105.0,101.0,13.4,1505.2,332.5,-0.8,1.8,2470.699,13.28,0.047,129.0